[[{"header":{"parameterUnit":"m.s-1","parameterCategory":1,"la1":30.2991,"la2":30.254,"lo1":-89.0895,"lo2":-89.0444,"dy":0.0017,"dx":0.0017,"nx":28,"ny":28,"refTime":"2025-07-09T09:00:00:Z","depth":0,"parameterNumber":2,"parameterNumberName":"U-component_of_WINDS"},"data":[0,0,0,0,0,0,0,0,0,0,0,0,0,0,0,0,0,0,0,0,0,0,0,0,0,0,0,0,0,0,0,0,0,0,0,0,0,0,0,0,0,0,0,0,0,0,0,0,0,0,0,0,0,0,0,0,0,0,2.6155,2.6155,0,2.6192,2.6193,2.6193,2.6172,2.6171,2.617,2.6169,2.6209,2.6211,2.6213,0,0,0,0,0,0,0,0,0,0,0,0,0,2.6069,2.6071,2.6155,2.6155,2.6156,2.6192,2.6193,2.6193,2.6172,2.6171,2.617,2.6169,2.6209,2.6211,2.6213,0,0,0,0,0,0,0,0,0,0,0,0,0,2.6106,2.6071,2.6155,2.615,2.615,2.6192,2.6193,2.6193,2.6173,2.6171,2.6169,2.6168,2.6208,2.6211,2.6214,2.6264,0,0,2.6223,2.6224,0,0,0,0,0,0,0,0,2.6104,2.6109,2.615,2.615,2.615,2.6176,2.6177,2.6217,2.6173,2.6164,2.6169,2.6167,2.62,2.6203,2.6214,2.6266,2.6267,2.6223,2.6225,2.6227,2.6227,0,0,0,0,0,0,0,2.6102,2.6108,2.617,2.6151,2.6151,2.6147,2.615,2.6185,2.619,2.6165,2.6163,2.6168,2.6199,2.6211,2.6214,2.6268,2.6223,2.6226,2.6228,2.6229,2.6365,2.6367,0,0,0,0,0,0,2.6099,2.6106,2.6168,2.6171,2.6123,2.6149,2.6153,2.6169,2.619,2.6191,2.6169,2.6167,2.6206,2.6211,2.6216,2.6277,2.6227,2.6229,2.6231,2.6364,2.6366,2.6368,0,0,0,0,0,0,2.6097,2.6105,2.6167,2.6138,2.6145,2.6153,2.617,2.6171,2.6182,2.6193,2.6194,2.6179,2.6205,2.6211,2.6252,2.6278,2.6231,2.6234,2.6362,2.6364,2.6367,2.6399,0,0,0,0,0,0,2.6095,2.6104,2.6122,2.6138,2.6147,2.6202,2.6172,2.6173,2.6187,2.6184,2.6203,2.6205,2.6205,2.6248,2.6255,2.6281,2.6236,2.6359,2.6363,2.6366,2.6396,2.6403,2.6408,0,0,0,0,0,2.6092,2.613,2.6123,2.6131,2.617,2.6203,2.6209,2.6207,2.6189,2.6208,2.6216,2.6204,2.6274,2.6252,2.6261,2.6288,2.6358,2.6362,2.6366,2.6393,2.6401,2.6408,0,0,0,0,0,0,2.6117,2.6132,2.6125,2.6169,2.6185,2.62,2.6224,2.6215,2.6237,2.6234,2.6232,2.6236,2.6279,2.6287,2.6263,2.6339,2.6313,2.6319,2.6331,2.6339,2.6345,2.6343,2.6239,0,0,0,0,0,2.6128,2.6153,2.6165,2.6203,2.6212,2.6217,2.6231,2.6228,2.6245,2.6252,2.6262,2.628,2.6306,2.6323,2.6347,2.6397,2.6402,2.642,2.6426,2.6432,2.6437,2.6466,2.6474,2.6381,2.6381,2.6381,0,0,2.6151,2.6162,2.6178,2.6209,2.6221,2.6248,2.6222,2.6252,2.6273,2.6257,2.6296,2.6304,2.6324,2.637,2.6391,2.6378,2.6464,2.6437,2.6441,2.6443,2.6471,2.6479,2.6487,2.6384,2.6383,2.6383,0,0,2.6206,2.6216,2.625,2.6263,2.6281,2.6285,2.6293,2.6309,2.6314,2.6353,2.6342,2.6368,2.6412,2.6427,2.644,2.6503,2.6494,2.6511,2.6544,2.6572,2.658,2.6586,2.661,2.6618,2.6516,2.6516,2.6516,0,2.6232,2.6271,2.6268,2.6299,2.6314,2.6301,2.6336,2.6349,2.6375,2.6386,2.6371,2.6428,2.644,2.649,2.6506,2.6516,2.6527,2.6509,2.6578,2.6585,2.6591,2.6614,2.6622,2.6518,2.6518,2.6518,2.6518,0,2.6303,2.6331,2.6356,2.6382,2.6399,2.6432,2.6435,2.6453,2.645,2.6455,2.6496,2.651,2.6538,2.655,2.6547,2.66,2.6592,2.6578,2.6553,2.6602,2.6623,2.6632,2.6521,2.6521,2.652,2.6519,0,0,2.6375,2.6399,2.6408,2.642,2.6441,2.6463,2.6496,2.6523,2.6539,2.6558,2.6586,2.6625,2.6613,2.6628,2.6627,2.6651,2.6702,2.6634,2.6635,2.6647,2.6764,2.6774,2.6784,2.6696,2.6697,2.6699,2.6762,0,2.6432,2.6489,2.6488,2.6541,2.6568,2.6557,2.6586,2.6602,2.6608,2.6633,2.664,2.6668,2.6649,2.6658,2.6682,2.6691,2.6725,2.6686,2.6724,2.6725,2.672,2.6795,2.6806,2.6866,2.677,2.6772,2.6773,0,2.6506,2.6528,2.6584,2.6601,2.6613,2.6639,2.6664,2.6687,2.6706,2.6709,2.6727,2.6722,2.6757,2.6731,2.678,2.6753,2.6769,2.6776,2.6778,2.6782,2.6752,2.6802,2.6884,2.6894,2.6786,2.6785,2.6784,0,2.6555,2.6597,2.6637,2.6647,2.6669,2.6687,2.6697,2.6715,2.6732,2.6754,2.6765,2.6792,2.6807,2.6828,2.6831,2.6811,2.6881,2.6855,2.6886,2.6886,2.6901,2.69,2.6988,2.691,2.691,2.691,2.691,0,2.6619,2.6654,2.6659,2.6683,2.6723,2.6722,2.6761,2.677,2.6786,2.6812,2.6804,2.683,2.6832,2.6859,2.6861,2.6903,2.6909,2.6913,2.6914,2.6915,2.6914,2.6925,2.6921,2.6912,2.6912,2.6911,2.6911,0,2.668,2.6684,2.6726,2.6743,2.6749,2.6777,2.6792,2.6816,2.6822,2.6856,2.6864,2.6873,2.6905,2.691,2.6946,2.6948,2.6998,2.6994,2.6992,2.6991,2.7022,2.702,2.7121,2.7135,2.7047,2.7048,2.7048,0,2.6721,2.6748,2.6768,2.6785,2.6796,2.6823,2.6841,2.6841,2.686,2.6885,2.6906,2.6936,2.696,2.7011,2.7022,2.705,2.7047,2.7081,2.7052,2.7052,2.7049,2.7048,2.7051,2.7087,2.7088,2.7088,2.7089,0,2.6794,2.6795,2.682,2.6846,2.6867,2.6887,2.6907,2.6922,2.6925,2.6947,2.6978,2.6997,2.7035,2.7066,2.7094,2.7106,2.7099,2.7098,2.7107,2.7108,2.7106,2.7109,2.7008,2.7096,2.7095,2.7095,2.7094,2.7094,2.6847,2.6871,2.6889,2.6917,2.6932,2.6951,2.6975,2.6983,2.701,2.704,2.7039,2.7074,2.7094,2.7132,2.7146,2.7174,2.7163,2.7176,2.7179,2.7183,2.7186,2.7101,2.7179,2.7179,2.7179,2.7179,2.7178,0,2.6921,2.6932,2.6958,2.6986,2.7009,2.6999,2.7021,2.7041,2.7072,2.7091,2.7115,2.7152,2.7182,2.7196,2.7226,2.7246,2.7244,2.7254,2.7253,2.7256,2.7193,2.7183,2.7255,2.7255,2.7255,2.7255,2.7255,2.7255,2.6962,2.7002,2.7006,2.7054,2.7065,2.7099,2.7112,2.713,2.7145,2.7187,2.7212,2.722,2.7238,2.7269,2.7297,2.73,2.7312,2.7324,2.7326,2.7268,2.726,2.7253,2.7243,2.7327,2.7327,2.7387,2.7387,2.7388]},{"header":{"parameterUnit":"m.s-1","parameterCategory":1,"la1":30.2991,"la2":30.254,"lo1":-89.0895,"lo2":-89.0444,"dy":0.0017,"dx":0.0017,"nx":28,"ny":28,"refTime":"2025-07-09T09:00:00:Z","depth":0,"parameterNumber":3,"parameterNumberName":"V-component_of_WINDS"},"data":[0,0,0,0,0,0,0,0,0,0,0,0,0,0,0,0,0,0,0,0,0,0,0,0,0,0,0,0,0,0,0,0,0,0,0,0,0,0,0,0,0,0,0,0,0,0,0,0,0,0,0,0,0,0,0,0,0,0,-0.7749,-0.7749,0,-0.78,-0.78,-0.7801,-0.7811,-0.781,-0.781,-0.7809,-0.7862,-0.7864,-0.7866,0,0,0,0,0,0,0,0,0,0,0,0,0,-0.7662,-0.7663,-0.7748,-0.7749,-0.775,-0.7799,-0.78,-0.7801,-0.7811,-0.781,-0.781,-0.7809,-0.7862,-0.7864,-0.7866,0,0,0,0,0,0,0,0,0,0,0,0,0,-0.7705,-0.7664,-0.7748,-0.7761,-0.7762,-0.7799,-0.78,-0.7801,-0.7811,-0.781,-0.781,-0.7809,-0.7861,-0.7864,-0.7866,-0.7895,0,0,-0.7875,-0.7876,0,0,0,0,0,0,0,0,-0.7702,-0.7708,-0.7758,-0.776,-0.7762,-0.7798,-0.7789,-0.7833,-0.7811,-0.7792,-0.7809,-0.7809,-0.7842,-0.7846,-0.7857,-0.7898,-0.79,-0.7875,-0.7877,-0.7878,-0.7878,0,0,0,0,0,0,0,-0.7699,-0.7706,-0.7769,-0.7759,-0.7761,-0.7764,-0.777,-0.7797,-0.782,-0.7794,-0.7795,-0.7801,-0.7842,-0.7854,-0.7858,-0.7901,-0.7875,-0.7877,-0.7879,-0.788,-0.797,-0.7971,0,0,0,0,0,0,-0.7694,-0.7703,-0.7767,-0.777,-0.773,-0.7766,-0.7772,-0.7787,-0.782,-0.7824,-0.7801,-0.7801,-0.785,-0.7855,-0.786,-0.7897,-0.7878,-0.788,-0.7882,-0.7969,-0.797,-0.7971,0,0,0,0,0,0,-0.7692,-0.7699,-0.7765,-0.7737,-0.7746,-0.7768,-0.7785,-0.7788,-0.78,-0.7825,-0.7829,-0.7809,-0.785,-0.7856,-0.7887,-0.7899,-0.7881,-0.7884,-0.7968,-0.7969,-0.797,-0.7971,0,0,0,0,0,0,-0.7689,-0.7699,-0.7709,-0.7737,-0.7747,-0.779,-0.7786,-0.779,-0.7805,-0.7805,-0.7833,-0.7837,-0.785,-0.7883,-0.7889,-0.7903,-0.7886,-0.7967,-0.7969,-0.797,-0.797,-0.7972,-0.7974,0,0,0,0,0,-0.7686,-0.7707,-0.771,-0.7717,-0.7761,-0.7791,-0.7797,-0.781,-0.7805,-0.7817,-0.7833,-0.7837,-0.7897,-0.7886,-0.7893,-0.7908,-0.7966,-0.7968,-0.797,-0.7969,-0.7972,-0.7974,0,0,0,0,0,0,-0.768,-0.7711,-0.7714,-0.7744,-0.7765,-0.7793,-0.7807,-0.7812,-0.7834,-0.7834,-0.785,-0.7856,-0.7886,-0.79,-0.7887,-0.7938,-0.7931,-0.7935,-0.7928,-0.7931,-0.7933,-0.7929,-0.7888,0,0,0,0,0,-0.7682,-0.7704,-0.773,-0.7754,-0.7764,-0.7784,-0.7798,-0.7806,-0.7828,-0.7837,-0.7855,-0.7877,-0.7901,-0.7917,-0.794,-0.7972,-0.7979,-0.7986,-0.7988,-0.7989,-0.7992,-0.8012,-0.8016,-0.7977,-0.7977,-0.7977,0,0,-0.7687,-0.7706,-0.7719,-0.7753,-0.777,-0.7793,-0.7791,-0.7815,-0.7833,-0.7841,-0.7871,-0.7886,-0.7911,-0.7943,-0.7958,-0.7955,-0.8004,-0.7991,-0.7992,-0.7995,-0.8014,-0.8018,-0.8021,-0.7978,-0.7978,-0.7977,0,0,-0.7707,-0.7723,-0.7746,-0.7764,-0.7789,-0.7803,-0.7808,-0.7835,-0.7845,-0.7876,-0.7883,-0.7905,-0.7945,-0.7964,-0.7978,-0.8007,-0.8012,-0.8014,-0.8025,-0.8044,-0.8047,-0.805,-0.8062,-0.8066,-0.8017,-0.8017,-0.8017,0,-0.7709,-0.7744,-0.7757,-0.7782,-0.7797,-0.7806,-0.783,-0.7846,-0.7879,-0.789,-0.7886,-0.7938,-0.7956,-0.7993,-0.8001,-0.8012,-0.802,-0.8012,-0.8046,-0.8049,-0.8052,-0.8063,-0.8068,-0.8017,-0.8017,-0.8017,-0.8017,0,-0.7747,-0.7771,-0.7786,-0.7817,-0.7835,-0.7859,-0.7877,-0.7893,-0.79,-0.7914,-0.7947,-0.7968,-0.7997,-0.8006,-0.8013,-0.8045,-0.8043,-0.8042,-0.8036,-0.8055,-0.8067,-0.8071,-0.8018,-0.8018,-0.8018,-0.8018,0,0,-0.7764,-0.7804,-0.7809,-0.7824,-0.7854,-0.7873,-0.7898,-0.7927,-0.7941,-0.7963,-0.7986,-0.802,-0.8021,-0.8037,-0.8047,-0.8064,-0.8088,-0.8061,-0.8062,-0.8067,-0.8126,-0.8128,-0.8133,-0.8091,-0.8091,-0.8092,-0.8125,0,-0.7789,-0.7834,-0.7848,-0.7886,-0.7909,-0.7918,-0.794,-0.7962,-0.7976,-0.7998,-0.8014,-0.8039,-0.8036,-0.8047,-0.8064,-0.8081,-0.81,-0.8079,-0.8113,-0.8114,-0.8108,-0.8138,-0.8139,-0.8169,-0.8129,-0.813,-0.813,0,-0.7824,-0.7848,-0.7888,-0.7917,-0.7927,-0.7947,-0.7975,-0.7996,-0.8021,-0.803,-0.8049,-0.8058,-0.8086,-0.8077,-0.8117,-0.8102,-0.8117,-0.8128,-0.8129,-0.8134,-0.8124,-0.8145,-0.8179,-0.8184,-0.8137,-0.8137,-0.8136,0,-0.7835,-0.7877,-0.7907,-0.7919,-0.7953,-0.7967,-0.7982,-0.8006,-0.8023,-0.8047,-0.8059,-0.8086,-0.8101,-0.8123,-0.8139,-0.8131,-0.8178,-0.817,-0.8188,-0.8187,-0.8198,-0.8197,-0.8235,-0.8205,-0.8205,-0.8205,-0.8205,0,-0.7862,-0.7887,-0.7912,-0.7931,-0.7959,-0.7975,-0.8003,-0.8019,-0.8041,-0.8063,-0.8073,-0.8094,-0.8114,-0.8138,-0.815,-0.8182,-0.8189,-0.8198,-0.8201,-0.8198,-0.8197,-0.8209,-0.8208,-0.8206,-0.8206,-0.8205,-0.8205,0,-0.7879,-0.7897,-0.7931,-0.796,-0.7968,-0.7988,-0.8014,-0.8033,-0.8048,-0.8077,-0.8084,-0.8108,-0.8137,-0.8155,-0.8192,-0.82,-0.8236,-0.8238,-0.8228,-0.823,-0.8246,-0.8245,-0.8295,-0.8303,-0.8265,-0.8266,-0.8266,0,-0.7896,-0.7916,-0.7948,-0.7964,-0.7979,-0.8004,-0.8021,-0.8038,-0.8056,-0.8087,-0.8103,-0.8132,-0.8157,-0.8203,-0.8224,-0.8253,-0.8257,-0.8272,-0.8261,-0.8258,-0.8259,-0.8258,-0.8261,-0.8274,-0.8274,-0.8275,-0.8275,0,-0.7925,-0.7933,-0.7957,-0.7986,-0.8006,-0.8029,-0.8052,-0.8065,-0.8086,-0.8106,-0.8136,-0.8155,-0.8193,-0.8223,-0.8254,-0.827,-0.8277,-0.8278,-0.8284,-0.8281,-0.8275,-0.8281,-0.8234,-0.8277,-0.8277,-0.8277,-0.8277,-0.8277,-0.7943,-0.7962,-0.7988,-0.8016,-0.8035,-0.8056,-0.8076,-0.8094,-0.8119,-0.8152,-0.816,-0.8192,-0.8219,-0.8261,-0.8278,-0.8304,-0.8302,-0.8309,-0.8312,-0.8314,-0.8315,-0.827,-0.8309,-0.8309,-0.8309,-0.8309,-0.8309,0,-0.7974,-0.7991,-0.8017,-0.8049,-0.8071,-0.8075,-0.8101,-0.812,-0.8148,-0.8172,-0.8196,-0.8232,-0.8261,-0.8285,-0.8315,-0.8332,-0.8336,-0.834,-0.8339,-0.8343,-0.8314,-0.8307,-0.8336,-0.8336,-0.8336,-0.8336,-0.8336,-0.8336,-0.7993,-0.8025,-0.8036,-0.8079,-0.8096,-0.8128,-0.8143,-0.8163,-0.8183,-0.8222,-0.8247,-0.8262,-0.8286,-0.8319,-0.8347,-0.8353,-0.8365,-0.8368,-0.8375,-0.8348,-0.8345,-0.8342,-0.8336,-0.837,-0.837,-0.8402,-0.8403,-0.8403]}]]